SAS666 ENAT-ENVA

Flight info

Callsign SAS666
Flight time N/A
Altitude 34000
Route LUVED DCT KUNUB DCT ABASU DCT AMIMO DCT NUPGO
Aircraft A321/M-SDE3FGHIRWY/LB1

Departure

Time N/A
Airport Alta Airport (ENAT)

Arrival

Time 2026-04-29 16:40
Airport Trondheim Airport, Værnes (ENVA)
Time Latitude Longitude Altitude Speed Heading
2026-04-29 15:32 69.36797 21.20684 25622 ft 365 kts 253°
2026-04-29 15:33 69.35784 21.14082 25933 ft 366 kts 253°
2026-04-29 15:33 69.34766 21.07448 26246 ft 368 kts 253°
2026-04-29 15:33 69.33683 21.00841 26551 ft 374 kts 248°
2026-04-29 15:33 69.32280 20.94557 26845 ft 380 kts 243°
2026-04-29 15:34 69.30799 20.88352 27140 ft 382 kts 243°
2026-04-29 15:34 69.29308 20.82112 27439 ft 383 kts 243°
2026-04-29 15:34 69.27814 20.75866 27737 ft 384 kts 243°
2026-04-29 15:34 69.26315 20.69604 28069 ft 385 kts 243°
2026-04-29 15:35 69.24812 20.63328 28385 ft 387 kts 243°
2026-04-29 15:35 69.23297 20.57022 28682 ft 389 kts 243°
2026-04-29 15:35 69.21776 20.50718 29041 ft 389 kts 244°
2026-04-29 15:35 69.20250 20.44431 29446 ft 389 kts 244°
2026-04-29 15:36 69.18721 20.38144 29772 ft 391 kts 244°
2026-04-29 15:36 69.17180 20.31824 30053 ft 393 kts 244°
2026-04-29 15:36 69.15655 20.25591 30339 ft 393 kts 244°
2026-04-29 15:36 69.14105 20.19282 30641 ft 392 kts 244°
2026-04-29 15:37 69.12556 20.12993 30950 ft 392 kts 244°
2026-04-29 15:37 69.11003 20.06702 31227 ft 392 kts 244°
2026-04-29 15:37 69.09453 20.00426 31490 ft 392 kts 244°
2026-04-29 15:37 69.07903 19.94165 31747 ft 392 kts 244°
2026-04-29 15:38 69.06349 19.87912 32064 ft 392 kts 243°
2026-04-29 15:38 69.04794 19.81684 32356 ft 391 kts 245°
2026-04-29 15:38 69.03239 19.75484 32725 ft 389 kts 245°
2026-04-29 15:38 69.01685 19.69304 33068 ft 388 kts 245°
2026-04-29 15:39 69.00137 19.63153 33376 ft 388 kts 245°
2026-04-29 15:39 68.98586 19.57005 33632 ft 387 kts 245°
2026-04-29 15:39 68.97032 19.50856 33888 ft 388 kts 245°
2026-04-29 15:39 68.95476 19.44712 34056 ft 390 kts 244°
2026-04-29 15:40 68.93901 19.38494 34080 ft 395 kts 244°
2026-04-29 15:40 68.90676 19.25828 34079 ft 409 kts 244°
2026-04-29 15:41 68.87317 19.12752 34071 ft 422 kts 243°
2026-04-29 15:41 68.83860 18.99388 34081 ft 430 kts 243°
2026-04-29 15:42 68.76657 18.71946 34076 ft 427 kts 244°
2026-04-29 15:43 68.73167 18.58712 34093 ft 427 kts 244°
2026-04-29 15:43 68.69687 18.45561 34085 ft 427 kts 244°
2026-04-29 15:44 68.66182 18.32400 34090 ft 427 kts 244°
2026-04-29 15:44 68.62650 18.19268 34097 ft 427 kts 243°
2026-04-29 15:45 68.59099 18.06162 34095 ft 428 kts 243°
2026-04-29 15:45 68.57121 17.99946 34093 ft 440 kts 233°
2026-04-29 15:45 68.54794 17.94406 34092 ft 444 kts 232°
2026-04-29 15:46 68.50091 17.83554 34101 ft 443 kts 232°
2026-04-29 15:46 68.45389 17.72739 34112 ft 442 kts 232°
2026-04-29 15:47 68.40689 17.61975 34107 ft 439 kts 232°
2026-04-29 15:47 68.36038 17.51373 34110 ft 436 kts 232°
2026-04-29 15:48 68.31389 17.40827 34119 ft 436 kts 232°
2026-04-29 15:48 68.26736 17.30330 34118 ft 436 kts 232°
2026-04-29 15:49 68.22074 17.19858 34127 ft 437 kts 232°
2026-04-29 15:49 68.17394 17.09434 34131 ft 437 kts 232°
2026-04-29 15:50 68.12739 16.99124 34123 ft 437 kts 232°
2026-04-29 15:50 68.08040 16.88776 34129 ft 437 kts 232°
2026-04-29 15:51 68.03343 16.78463 34132 ft 437 kts 232°
2026-04-29 15:51 67.98640 16.68181 34139 ft 438 kts 231°
2026-04-29 15:52 67.93912 16.57932 34133 ft 439 kts 231°
2026-04-29 15:52 67.89172 16.47740 34138 ft 438 kts 231°
2026-04-29 15:52 67.86684 16.42914 34137 ft 450 kts 223°
2026-04-29 15:53 67.83937 16.38732 34140 ft 455 kts 221°
2026-04-29 15:53 67.78422 16.30506 34136 ft 455 kts 221°
2026-04-29 15:54 67.72893 16.22321 34141 ft 455 kts 221°
2026-04-29 15:54 67.67359 16.14130 34143 ft 457 kts 221°
2026-04-29 15:55 67.61809 16.05951 34153 ft 457 kts 221°
2026-04-29 15:55 67.56277 15.97871 34151 ft 458 kts 220°
2026-04-29 15:56 67.50704 15.89777 34159 ft 458 kts 220°
2026-04-29 15:56 67.45138 15.81747 34159 ft 455 kts 220°
2026-04-29 15:57 67.39603 15.73777 34161 ft 455 kts 220°
2026-04-29 15:57 67.34062 15.65818 34161 ft 455 kts 220°
2026-04-29 15:58 67.28501 15.57918 34164 ft 456 kts 219°
2026-04-29 15:58 67.22954 15.50093 34162 ft 457 kts 219°
2026-04-29 15:59 67.17378 15.42226 34165 ft 457 kts 219°
2026-04-29 15:59 67.11795 15.34392 34160 ft 457 kts 219°
2026-04-29 16:00 67.06206 15.26598 34167 ft 457 kts 219°
2026-04-29 16:00 67.00609 15.18852 34168 ft 457 kts 219°
2026-04-29 16:01 66.95035 15.11189 34168 ft 457 kts 219°
2026-04-29 16:01 66.89165 15.04374 34169 ft 468 kts 212°
2026-04-29 16:02 66.83438 14.97132 34136 ft 454 kts 221°
2026-04-29 16:02 66.78077 14.88873 34176 ft 454 kts 221°
2026-04-29 16:03 66.72571 14.80830 34172 ft 458 kts 219°
2026-04-29 16:03 66.67882 14.74513 34178 ft 460 kts 218°
2026-04-29 16:04 66.62189 14.67080 34189 ft 460 kts 218°
2026-04-29 16:04 66.56514 14.59633 34208 ft 459 kts 218°
2026-04-29 16:05 66.50900 14.52171 34220 ft 460 kts 218°
2026-04-29 16:05 66.45231 14.44639 34217 ft 461 kts 218°
2026-04-29 16:06 66.39557 14.37183 34220 ft 461 kts 217°
2026-04-29 16:06 66.33852 14.29750 34219 ft 462 kts 217°
2026-04-29 16:07 66.28192 14.22401 34220 ft 462 kts 217°
2026-04-29 16:07 66.22492 14.15040 34215 ft 462 kts 217°
2026-04-29 16:08 66.16776 14.07705 34222 ft 463 kts 217°
2026-04-29 16:08 66.11041 14.00385 34227 ft 463 kts 217°
2026-04-29 16:09 66.05308 13.93083 34226 ft 463 kts 217°
2026-04-29 16:09 65.99603 13.85851 34238 ft 463 kts 217°
2026-04-29 16:10 65.93900 13.78659 34212 ft 459 kts 217°
2026-04-29 16:10 65.88214 13.71538 34246 ft 458 kts 217°
2026-04-29 16:11 65.82533 13.64461 34243 ft 458 kts 217°
2026-04-29 16:11 65.76852 13.57418 34248 ft 458 kts 217°
2026-04-29 16:12 65.71189 13.50426 34248 ft 459 kts 217°
2026-04-29 16:12 65.65491 13.43422 34215 ft 459 kts 216°
2026-04-29 16:13 65.59823 13.36501 34248 ft 459 kts 216°
2026-04-29 16:13 65.54111 13.29563 34260 ft 460 kts 216°
2026-04-29 16:14 65.48384 13.22627 34275 ft 460 kts 216°
2026-04-29 16:14 65.42654 13.15729 34260 ft 459 kts 216°
2026-04-29 16:15 65.36959 13.08905 34293 ft 459 kts 216°
2026-04-29 16:15 65.31209 13.02027 34293 ft 461 kts 215°
2026-04-29 16:16 65.25454 12.95203 34301 ft 462 kts 215°
2026-04-29 16:16 65.19688 12.88418 34299 ft 462 kts 215°
2026-04-29 16:17 65.13925 12.81646 34306 ft 462 kts 215°
2026-04-29 16:17 65.08165 12.74897 34305 ft 462 kts 215°
2026-04-29 16:18 65.02424 12.68203 34308 ft 464 kts 214°
2026-04-29 16:18 64.96615 12.61470 34305 ft 464 kts 214°
2026-04-29 16:19 64.90801 12.54786 34314 ft 464 kts 214°
2026-04-29 16:19 64.85034 12.48172 34315 ft 464 kts 214°
2026-04-29 16:20 64.79213 12.41535 34331 ft 464 kts 214°
2026-04-29 16:20 64.73375 12.34903 34333 ft 465 kts 213°
2026-04-29 16:21 64.67574 12.28324 34338 ft 465 kts 214°
2026-04-29 16:21 64.64675 12.25059 34037 ft 459 kts 213°
2026-04-29 16:21 64.61812 12.21853 33557 ft 453 kts 213°
2026-04-29 16:21 64.58976 12.18685 33058 ft 450 kts 213°
2026-04-29 16:22 64.56167 12.15552 32416 ft 448 kts 213°
2026-04-29 16:22 64.53310 12.12350 31367 ft 458 kts 213°
2026-04-29 16:22 64.50466 12.09167 30704 ft 458 kts 213°
2026-04-29 16:22 64.47605 12.05991 30135 ft 454 kts 212°
2026-04-29 16:23 64.44763 12.02855 29504 ft 450 kts 212°
2026-04-29 16:23 64.41945 11.99751 28880 ft 447 kts 212°
2026-04-29 16:23 64.39142 11.96660 28281 ft 443 kts 212°
2026-04-29 16:23 64.36371 11.93612 27687 ft 440 kts 212°
2026-04-29 16:24 64.33622 11.90591 27106 ft 436 kts 212°
2026-04-29 16:24 64.30890 11.87595 26537 ft 433 kts 212°
2026-04-29 16:24 64.28174 11.84629 25971 ft 430 kts 212°
2026-04-29 16:24 64.25475 11.81693 25421 ft 427 kts 212°
2026-04-29 16:25 64.22800 11.78781 24878 ft 424 kts 212°
2026-04-29 16:25 64.20139 11.75887 24339 ft 421 kts 211°
2026-04-29 16:25 64.17501 11.73028 23780 ft 418 kts 211°
2026-04-29 16:25 64.14876 11.70190 23154 ft 416 kts 211°
2026-04-29 16:26 64.12261 11.67411 22576 ft 413 kts 210°
2026-04-29 16:26 64.09506 11.65440 21877 ft 416 kts 194°
2026-04-29 16:26 64.06659 11.64722 20929 ft 416 kts 191°
2026-04-29 16:26 64.03789 11.64151 20024 ft 412 kts 191°
2026-04-29 16:27 64.00945 11.63628 19144 ft 408 kts 191°
2026-04-29 16:27 63.98127 11.63126 18213 ft 404 kts 191°
2026-04-29 16:27 63.95339 11.62625 17257 ft 399 kts 191°
2026-04-29 16:27 63.92585 11.62123 16369 ft 394 kts 191°
2026-04-29 16:28 63.89867 11.61618 15519 ft 388 kts 191°
2026-04-29 16:28 63.87187 11.61112 14671 ft 383 kts 190°
2026-04-29 16:28 63.84552 11.60617 13825 ft 377 kts 190°
2026-04-29 16:28 63.81996 11.60136 12947 ft 371 kts 189°
2026-04-29 16:29 63.79435 11.59654 12110 ft 365 kts 189°
2026-04-29 16:29 63.76917 11.59180 11287 ft 359 kts 189°
2026-04-29 16:29 63.74451 11.58718 10674 ft 348 kts 189°
2026-04-29 16:29 63.72118 11.58300 10497 ft 324 kts 189°
2026-04-29 16:30 63.69905 11.57902 10015 ft 315 kts 189°
2026-04-29 16:30 63.67743 11.57496 9434 ft 309 kts 189°
2026-04-29 16:30 63.65643 11.57093 8861 ft 303 kts 189°
2026-04-29 16:30 63.63564 11.56696 8348 ft 295 kts 189°
2026-04-29 16:31 63.61538 11.56320 8010 ft 292 kts 189°
2026-04-29 16:31 63.59523 11.55944 7555 ft 288 kts 189°
2026-04-29 16:31 63.57547 11.55576 7094 ft 282 kts 189°
2026-04-29 16:31 63.55660 11.55234 6933 ft 262 kts 189°
2026-04-29 16:32 63.53896 11.54919 6727 ft 246 kts 189°
2026-04-29 16:32 63.52221 11.54280 6603 ft 242 kts 203°
2026-04-29 16:32 63.50662 11.52957 6499 ft 239 kts 206°
2026-04-29 16:32 63.49103 11.51609 6019 ft 240 kts 206°
2026-04-29 16:33 63.46426 11.48116 5438 ft 211 kts 236°
2026-04-29 16:33 63.45743 11.45369 5238 ft 195 kts 255°
2026-04-29 16:33 63.45553 11.42487 4968 ft 182 kts 272°
2026-04-29 16:34 63.45568 11.39735 4691 ft 173 kts 273°
2026-04-29 16:34 63.45585 11.37090 4437 ft 168 kts 273°
2026-04-29 16:34 63.45600 11.34506 4178 ft 164 kts 273°
2026-04-29 16:34 63.45612 11.31989 3944 ft 156 kts 273°
2026-04-29 16:35 63.45623 11.29718 3702 ft 142 kts 273°
2026-04-29 16:35 63.45634 11.27536 3481 ft 139 kts 273°
2026-04-29 16:35 63.45644 11.25391 3269 ft 139 kts 272°
2026-04-29 16:35 63.45655 11.23221 3049 ft 139 kts 272°
2026-04-29 16:36 63.45664 11.21071 2842 ft 138 kts 272°
2026-04-29 16:36 63.45673 11.18922 2614 ft 137 kts 273°
2026-04-29 16:36 63.45682 11.16793 2407 ft 137 kts 272°
2026-04-29 16:36 63.45690 11.14676 2184 ft 136 kts 272°
2026-04-29 16:37 63.45698 11.12548 1973 ft 137 kts 272°
2026-04-29 16:37 63.45706 11.10429 1762 ft 135 kts 271°
2026-04-29 16:37 63.45713 11.08353 1537 ft 135 kts 271°
2026-04-29 16:37 63.45718 11.06924 1391 ft 136 kts 271°
2026-04-29 16:38 63.45727 11.04139 1077 ft 135 kts 271°
2026-04-29 16:38 63.45734 11.02051 881 ft 134 kts 271°
2026-04-29 16:38 63.45747 10.99967 664 ft 133 kts 271°
2026-04-29 16:38 63.45751 10.97878 491 ft 134 kts 270°
2026-04-29 16:39 63.45736 10.95813 291 ft 132 kts 273°
2026-04-29 16:39 63.45758 10.93798 85 ft 131 kts 272°
2026-04-29 16:39 63.45761 10.91963 39 ft 97 kts 268°
2026-04-29 16:39 63.45764 10.90846 34 ft 53 kts 271°
2026-04-29 16:40 63.45706 10.90477 33 ft 16 kts 245°
2026-04-29 16:40 63.45628 10.90400 33 ft 13 kts 172°
2026-04-29 16:40 63.45606 10.90588 34 ft 17 kts 79°
2026-04-29 16:40 63.45607 10.90857 35 ft 18 kts 95°
2026-04-29 16:41 63.45601 10.91134 35 ft 18 kts 85°
2026-04-29 16:41 63.45551 10.91176 34 ft 8 kts 221°
2026-04-29 16:41 63.45503 10.91142 38 ft 7 kts 181°
2026-04-29 16:41 63.45457 10.91189 39 ft 8 kts 113°
2026-04-29 16:42 63.45454 10.91246 39 ft 1 kts 92°
2026-04-29 16:42 63.45454 10.91250 39 ft 0 kts 92°